STARLINK-11591, 63116

Orbit data source: Space-Track

STARLINK-11591, 63116 is a payload satellite owned by SpaceX/Seattle (US) in LEO that was launched on Thu, 27 Feb 2025 UTC via an FALCON 9 launch vehicle from the Air Force Eastern Test Range (AFETR). Payload-class satellites include a variety of spacecraft equipped with specific instruments for various scientific and technological missions. These include communications satellites like Starlink; space stations such as the ISS; scientific satellites like the Hubble; Earth observation satellites from companies like Planet Labs, Umbra, and HawkEye 360; GPS; miniature CubeSats for education and research; and military/defense satellites.

Loading next visibility...
Identifier
63116, 2025-039N
Orbit
LEO
Last TLE update
16 hours ago
Origin
Manufacturer
SpaceX/Seattle
Mission
Operational Commercial Communications
Bus & Motor
STARLINK V2M, Unknown motor
Mass
730 kg wet, ~700 kg dry
Launch date (UTC)
2025-02-27 (4 months ago)
Launch vehicle
FALCON 9
Launch site
Air Force Eastern Test Range (AFETR)
Object type
Payload
Rocket body
Debris
Shape & HBR
Box + 2 Pan, 29 m
Radar Cross Section
36.964 m², Large (>1 m²)

Expand to show TLE details & history

TLE from 16 hours ago
0 STARLINK-11591
1 63116U 25039N   25191.46267065  .00109408  00000-0  84432-3 0  9996
2 63116  42.9989 256.5315 0001093 263.0067  97.0677 15.70858088 21520
Epoch: 2025-07-10T11:06Z
TLE epoch observation values (Epoch: 2025-07-10T11:06:14.744Z)
Latitude
0.00004°
Longitude
161.34151°
Altitude
356.305 km
Speed
7.697 km/s
True Right ascension
17h 06m 07s
True Declination
0° 00' 00"
Sunlit
Object was in full shadow at epoch
Visualization orbit readout
Latitude
39.58956°
Longitude
-140.69806°
Altitude
359.075 km
Speed
7.699 km/s
Apparent Right ascension
23h 50m 09s
Apparent Declination
1° 36' 15"
Sunlit
Object is in full shadow
Visualization observer readout
Local Sidereal Time
14:55:49
Azimuth
57.367° ENE
Elevation
-30.703°
Doppler factor
1
Orbital elements
Apogee altitude
359.161 km
Perigee altitude
357.689 km
Semi-major axis
6,736.562 km
Eccentricity
0.00011
Inclination
42.9989°
RAAN
256.5315°
Arg. of periapsis
263.0067°
True anomaly
Unknown
Mean anomaly
97.0677°
Eccentric anomaly
Unknown
Mean motion
3.92542 °/min
Orbital period
91.71 mins
BSTAR
0.00084432
Loading maneuver chart data...
Loading SW <> Apogee altitude chart data...
Loading historical data...
Loading historical data...
Loading historical data...
Loading historical data...
Loading historical data...
Loading historical data...
Loading historical data...

STARLINK-11591 Visibility forecast

Observer location: undefined°, undefined°

Span
Click to sort rows by Start time (UTC) header in descending order
Start Az.
Max El. time (UTC)
Max El. Az.
Max El.
End time (UTC)
End Az.
4 mins2025-07-11 07:08:13.644Z191.362° SSW2025-07-11 07:10:13.644Z145.137° SSE17.929°2025-07-11 07:12:13.644Z100.652° ESE
4 mins2025-07-11 08:44:13.644Z254.534° W2025-07-11 08:46:13.644Z53.076° ENE43.763°2025-07-11 08:48:13.644Z70.613° E
4 mins2025-07-11 11:57:13.644Z293.335° NW2025-07-11 11:58:13.644Z313.021° NW42.495°2025-07-11 12:01:13.644Z104.022° ESE
|